This is the latest recevied weather packets stored in our database for station/object F6BIJ-13. If no packets are shown the sender has not sent any weather packets the latest 10 day(s).
| Time | Temp. | Humidity | Pressure | Rain* | Wind** | Luminosity | Snow |
|---|---|---|---|---|---|---|---|
| 1778170717 | 19.44° C | 56% | 1013 hPa | 0 mm | - | - | - |
| 1778170357 | 18.33° C | 57% | 1012.9 hPa | 0 mm | - | - | - |
| 1778169997 | 18.89° C | 58% | 1013 hPa | 0 mm | - | - | - |
| 1778169636 | 18.33° C | 55% | 1012.9 hPa | 0 mm | - | - | - |
| 1778169277 | 18.89° C | 57% | 1013 hPa | 0 mm | - | - | - |
| 1778168917 | 18.89° C | 56% | 1013 hPa | 0 mm | - | - | - |
| 1778168557 | 18.89° C | 57% | 1012.9 hPa | 0 mm | - | - | - |
| 1778168197 | 19.44° C | 55% | 1012.9 hPa | 0 mm | - | - | - |
| 1778168018 | 19.44° C | 57% | 1013 hPa | 0 mm | - | - | - |
| 1778167836 | 19.44° C | 57% | 1013 hPa | 0 mm | - | - | - |
| 1778167477 | 18.89° C | 57% | 1012.9 hPa | 0 mm | - | - | - |
| 1778167477 | 18.33° C | 56% | 1013 hPa | 0 mm | - | - | - |
| 1778167117 | 18.33° C | 56% | 1013 hPa | 0 mm | - | - | - |
| 1778166757 | 18.89° C | 55% | 1013.1 hPa | 0 mm | - | - | - |
| 1778166397 | 18.89° C | 57% | 1013.1 hPa | 0 mm | - | - | - |
| 1778166037 | 18.33° C | 57% | 1013.1 hPa | 0 mm | - | - | - |
| 1778165677 | 18.33° C | 56% | 1013.2 hPa | 0 mm | - | - | - |
| 1778165317 | 17.78° C | 57% | 1013.2 hPa | 0 mm | - | - | - |
| 1778164957 | 18.33° C | 59% | 1013.1 hPa | 0 mm | - | - | - |
| 1778164597 | 18.89° C | 54% | 1013.1 hPa | 0 mm | - | - | - |
| 1778164237 | 18.89° C | 58% | 1013.2 hPa | 0 mm | - | - | - |
| 1778163877 | 18.89° C | 56% | 1013.3 hPa | 0 mm | - | - | - |
| 1778163517 | 18.89° C | 49% | 1013.3 hPa | 0 mm | - | - | - |
| 1778163157 | 20° C | 51% | 1013.3 hPa | 0 mm | - | - | - |
| 1778162797 | 20° C | 51% | 1013.3 hPa | 0 mm | - | - | - |
* Rain latest 24 hours (hover to see other rain measurements)
** Current wind speed in m/s (hover to see current wind gust speed)